Home > Weather > Søgne > Past weeks

Flag for Norway Weather for the Past 2 Weeks in Søgne, Norway

Now
43 °F

Scattered clouds.


Feels Like: 43 °F
Forecast: 39 / 47 °F
Wind: No wind

Location: Kristiansand / Kjevik

Current Time: Apr 29, 2016 at 11:11:50 AM

Latest Report: Apr 29, 2016 at 9:50 AM


Visibility: N/A

Pressure: 29.80 "Hg

Humidity: 87%

Dew Point: 39 °F

Location of SøgneLocation

Historic Weather in Søgne — Graph

°F

Søgne Temperature Yesterday

Maximum temperature yesterday: 43 °F (at 7:20 PM)
Minimum temperature yesterday: 30 °F (at 3:50 AM)
Average temperature yesterday: 37 °F

High & Low Weather Summary for the Past Weeks

 TemperatureHumidityPressure
High59 °F (Apr 20, 3:50 PM)100% (Apr 14, 10:50 PM)30.27 "Hg (Apr 14, 10:50 PM)
Low28 °F (Apr 29, 3:50 AM)23% (Apr 22, 7:20 PM)29.30 "Hg (Apr 17, 1:50 AM)
Average43 °F68%29.76 "Hg
* Reported Apr 14 9:20 AM — Apr 29 9:20 AM, Søgne, Weather by CustomWeather, © 2016

Note: Actual official high and low records may vary slightly from our data, if they occured in-between our weather recording intervals... More about our weather records

Advertising

Søgne Weather History for the Previous 24 Hours

Scroll right to see more
 ConditionsComfort  
Time TempWeatherWind HumidityBarometerVisibility
9:20 AM
Fri, Apr 29
39 °FScattered clouds.3 mph93%29.77 "HgN/A
8:50 AM37 °FPartly sunny.3 mph93%29.77 "HgN/A
8:20 AM36 °FScattered clouds.5 mph93%29.77 "HgN/A
7:50 AM32 °FFog.5 mph100%29.77 "Hg4 mi
7:20 AM30 °FScattered clouds.3 mph100%29.77 "Hg3 mi
6:50 AM28 °FScattered clouds.3 mph100%29.74 "Hg1 mi
6:20 AM28 °FIce fog.3 mph100%29.74 "Hg1 mi
5:50 AM28 °FIce fog.2 mph100%29.74 "Hg0 mi
5:20 AM28 °FIce fog.3 mph100%29.74 "Hg0 mi
4:20 AM30 °FIce fog.2 mph93%29.74 "Hg0 mi
3:50 AM28 °FIce fog.3 mph100%29.77 "Hg0 mi
3:20 AM30 °FIce fog.3 mph93%29.77 "Hg0 mi
2:50 AM30 °FIce fog.3 mph100%29.77 "Hg0 mi
2:20 AM32 °FChilly.3 mph100%29.77 "Hg0 mi
1:50 AM34 °FFog.2 mph93%29.77 "Hg1 mi
12:50 AM36 °FPassing clouds.No wind93%29.80 "HgN/A
12:20 AM36 °FOvercast.1 mph93%29.80 "HgN/A
11:50 PM
Thu, Apr 28
36 °FMostly cloudy.3 mph93%29.80 "HgN/A
11:20 PM36 °FPassing clouds.3 mph93%29.80 "HgN/A
10:50 PM39 °FPassing clouds.3 mph87%29.80 "HgN/A
10:20 PM37 °FPassing clouds.1 mph93%29.83 "HgN/A
9:50 PM39 °FBroken clouds.2 mph93%29.83 "HgN/A
9:20 PM39 °FScattered clouds.2 mph93%29.83 "HgN/A
8:50 PM41 °FScattered clouds.1 mph87%29.83 "HgN/A
8:20 PM41 °FScattered clouds.5 mph87%29.83 "HgN/A
7:50 PM43 °FScattered showers. Partly sunny.2 mph87%29.83 "HgN/A
7:20 PM43 °FScattered showers. Broken clouds.2 mph87%29.86 "HgN/A
6:50 PM41 °FScattered showers. Scattered clouds.3 mph93%29.86 "HgN/A
6:20 PM41 °FThunderstorms. Broken clouds.9 mph87%29.86 "HgN/A
5:50 PM41 °FThunderstorms. Scattered clouds.9 mph87%29.86 "HgN/A
5:20 PM41 °FDrizzle. Partly sunny.9 mph87%29.86 "HgN/A
4:50 PM41 °FPartly sunny.6 mph81%29.86 "HgN/A
4:20 PM39 °FLight rain. Partly sunny.12 mph87%29.86 "HgN/A
3:50 PM41 °FScattered showers. Broken clouds.12 mph87%29.86 "HgN/A
3:20 PM41 °FScattered showers. Partly sunny.12 mph81%29.86 "HgN/A
2:50 PM41 °FLight rain. Partly sunny.13 mph87%29.86 "HgN/A
2:20 PM41 °FScattered showers. Partly sunny.12 mph87%29.86 "HgN/A
1:50 PM41 °FScattered showers. Partly sunny.10 mph87%29.86 "HgN/A
1:20 PM37 °FSprinkles. Partly sunny.2 mph93%29.86 "HgN/A
12:50 PM36 °FSprinkles. Partly sunny.5 mph93%29.86 "HgN/A
12:20 PM36 °FSprinkles. Partly sunny.1 mph93%29.86 "HgN/A
11:50 AM36 °FSprinkles. Partly sunny.8 mph93%29.86 "Hg4 mi
11:20 AM36 °FSprinkles. Partly sunny.3 mph93%29.86 "HgN/A
Weather by CustomWeather, © 2016

See weather overviewHow to use our weather pages